Weather History for KBED - March, 2012

Change the Weather History Date:

Saturday, March 3, 2012

  Actual Average Record
Temperature  
Mean Temperature 38 °F -  
Max Temperature 43 °F 39 °F 67 °F (1991)
Min Temperature 32 °F 23 °F 0 °F (1962)
Degree Days  
Heating Degree Days 28    
Moisture  
Dew Point 34 °F    
Average Humidity 94    
Maximum Humidity 100    
Minimum Humidity 73    
Precipitation  
Precipitation 0.41 in - - ()
Sea Level Pressure  
Sea Level Pressure 29.59 in    
Wind  
Wind Speed 6 mph (SW)    
Max Wind Speed 12 mph    
Max Gust Speed 21 mph    
Visibility 5 miles    
Events Fog , Rain , Snow    
Averages and records for this station are not official NWS values.
T = Trace of Precipitation, MM = Missing Value Source: NWS Daily Summary

Daily Weather History Graph

Daily Weather History Graph

Search for Another Location

Airport or City:

Trip Planner

Search our weather history database for the weather conditions in past years. The results will help you decide how hot, cold, wet, or windy it might be!

Date:

Astronomy

Mar. 03, 2012 Rise Set
Actual Time 6:16 AM EST 5:37 PM EST
Civil Twilight 5:48 AM EST 6:06 PM EST
Nautical Twilight 5:15 AM EST 6:38 PM EST
Astronomical Twilight 4:43 AM EST 7:11 PM EST
Moon 12:39 PM EST (3/3) 2:56 AM EST (3/3)
Length of Visible Light 12h 17m
Length of Day
11h 21m
Waxing Gibbous, 75% of the Moon is Illuminated
Mar 3
Waxing Gibbous
Mar 8
Full
Mar 14
Last Quarter
Mar 22
New
Mar 30
First Quarter

Hourly Weather History & Observations

Time (EST) Temp. Windchill Dew Point Humidity Pressure Visibility Wind Dir Wind Speed Gust Speed Precip Events Conditions
12:38 AM 32.0 °F 24.8 °F 30.2 °F 93% 29.93 in 1.8 mi East 8.1 mph - 0.02 in Snow Light Snow
12:56 AM 33.1 °F 25.5 °F 30.9 °F 92% 29.96 in 2.5 mi ESE 9.2 mph - 0.04 in Snow Light Snow
1:10 AM 33.8 °F 27.0 °F 30.2 °F 87% 29.91 in 1.0 mi ESE 8.1 mph - 0.02 in Snow Light Snow
1:21 AM 33.8 °F 25.3 °F 30.2 °F 87% 29.89 in 2.0 mi ESE 11.5 mph - 0.03 in Snow Light Snow
1:39 AM 33.8 °F 25.8 °F 30.2 °F 87% 29.87 in 1.2 mi ESE 10.4 mph - 0.05 in Snow Light Snow
1:48 AM 33.8 °F 26.4 °F 30.2 °F 87% 29.86 in 3.0 mi ESE 9.2 mph - 0.06 in Snow Light Snow
1:56 AM 33.1 °F 26.1 °F 30.9 °F 92% 29.91 in 6.0 mi SE 8.1 mph - 0.06 in Snow Light Snow
2:56 AM 33.1 °F 25.5 °F 32.0 °F 96% 29.87 in 7.0 mi SE 9.2 mph - 0.05 in Rain Light Rain
3:56 AM 34.0 °F 26.6 °F 32.0 °F 92% 29.83 in 5.0 mi ESE 9.2 mph - 0.01 in Rain Light Rain
4:56 AM 34.0 °F 28.0 °F 33.1 °F 96% 29.78 in 3.0 mi ESE 6.9 mph - 0.02 in Rain Light Rain
5:56 AM 35.1 °F 30.1 °F 34.0 °F 96% 29.74 in 5.0 mi ESE 5.8 mph - 0.02 in Rain Light Rain
6:42 AM 35.6 °F - 35.6 °F 100% 29.66 in 2.0 mi Calm Calm - 0.01 in Rain Light Rain
6:53 AM 35.6 °F - 33.8 °F 93% 29.65 in 1.2 mi Calm Calm - 0.03 in Rain Light Rain
6:56 AM 35.1 °F - 34.0 °F 96% 29.70 in 1.2 mi Calm Calm - 0.03 in Rain Light Rain
7:20 AM 33.8 °F - 33.8 °F 100% 29.63 in 2.0 mi Calm Calm - 0.01 in Rain Light Rain
7:56 AM 34.0 °F 31.0 °F 33.1 °F 96% 29.64 in 1.0 mi North 3.5 mph - 0.02 in Rain Light Rain
8:41 AM 33.8 °F - 33.8 °F 100% 29.54 in 0.8 mi Calm Calm - 0.01 in Rain Light Rain
8:56 AM 34.0 °F 31.0 °F 33.1 °F 96% 29.57 in 0.5 mi NNW 3.5 mph - 0.01 in Fog , Rain Light Rain
9:56 AM 36.0 °F - 36.0 °F 100% 29.53 in 1.0 mi Calm Calm - 0.02 in Rain Light Rain
10:03 AM 35.6 °F - 35.6 °F 100% 29.47 in 0.5 mi Calm Calm - 0.00 in Fog , Rain Light Rain
10:48 AM 35.6 °F 30.7 °F 35.6 °F 100% 29.46 in 0.5 mi West 5.8 mph - 0.01 in Fog , Rain Light Rain
10:56 AM 36.0 °F 32.1 °F 36.0 °F 100% 29.50 in 0.5 mi West 4.6 mph - 0.03 in Fog , Rain Rain
11:03 AM 35.6 °F 30.7 °F 35.6 °F 100% 29.45 in 1.8 mi West 5.8 mph - 0.01 in Rain Light Rain
11:18 AM 35.6 °F 32.8 °F 35.6 °F 100% 29.43 in 3.0 mi WNW 3.5 mph - 0.03 in Rain Light Rain
11:40 AM 35.6 °F 29.2 °F 33.8 °F 93% 29.44 in 1.5 mi WNW 8.1 mph - 0.04 in Rain Light Rain
11:56 AM 35.1 °F 31.0 °F 35.1 °F 100% 29.47 in 1.5 mi WNW 4.6 mph - 0.05 in Rain Light Rain
12:56 PM 35.1 °F 31.0 °F 34.0 °F 96% 29.43 in 1.5 mi West 4.6 mph - 0.05 in Rain Light Rain
1:03 PM 35.6 °F 31.7 °F 33.8 °F 93% 29.38 in 10.0 mi West 4.6 mph - 0.00 in Rain Light Rain
1:10 PM 35.6 °F 29.2 °F 33.8 °F 93% 29.39 in 10.0 mi West 8.1 mph - 0.00 in Rain Light Rain
1:40 PM 35.6 °F 32.8 °F 35.6 °F 100% 29.36 in 10.0 mi WSW 3.5 mph - 0.00 in   Overcast
1:56 PM 37.0 °F 32.4 °F 35.1 °F 93% 29.40 in 10.0 mi West 5.8 mph - 0.00 in   Overcast
2:35 PM 37.4 °F 32.8 °F 35.6 °F 93% 29.37 in 10.0 mi WSW 5.8 mph - N/A   Overcast
2:56 PM 37.9 °F 35.5 °F 37.0 °F 97% 29.43 in 10.0 mi SW 3.5 mph - N/A   Overcast
3:56 PM 41.0 °F 35.8 °F 37.9 °F 89% 29.43 in 10.0 mi SSW 8.1 mph - N/A   Overcast
4:40 PM 42.8 °F 37.5 °F 39.2 °F 87% 29.40 in 10.0 mi SW 9.2 mph - N/A   Scattered Clouds
4:56 PM 43.0 °F 38.8 °F 39.0 °F 86% 29.45 in 10.0 mi SW 6.9 mph - N/A   Clear
5:56 PM 37.9 °F 35.5 °F 37.0 °F 97% 29.47 in 10.0 mi SW 3.5 mph - N/A   Clear
5:59 PM 39.2 °F 37.0 °F 37.4 °F 93% 29.43 in 10.0 mi SW 3.5 mph - N/A   Partly Cloudy
6:56 PM 36.0 °F 33.3 °F 34.0 °F 93% 29.51 in 5.0 mi SW 3.5 mph - N/A   Partly Cloudy
7:25 PM 33.8 °F 30.8 °F 33.8 °F 100% 29.47 in 1.8 mi Variable 3.5 mph - N/A   Clear
7:35 PM 35.6 °F 32.8 °F 33.8 °F 93% 29.48 in 3.0 mi WSW 3.5 mph 20.7 mph N/A   Clear
7:56 PM 37.9 °F - 36.0 °F 93% 29.53 in 10.0 mi North - - N/A   Clear
8:56 PM 39.0 °F 32.8 °F 36.0 °F 89% 29.55 in 10.0 mi SW 9.2 mph - N/A   Clear
9:56 PM 37.0 °F 33.3 °F 35.1 °F 93% 29.59 in 9.0 mi WSW 4.6 mph - N/A   Clear
10:56 PM 37.9 °F 34.4 °F 30.9 °F 76% 29.61 in 10.0 mi WSW 4.6 mph - N/A   Clear
11:56 PM 37.0 °F 32.4 °F 28.9 °F 73% 29.62 in 10.0 mi West 5.8 mph - N/A   Clear